Regional Weather Roundup
Issued by NWS Kansas City/Pleasant Hill, MO

Home | Current Version | Previous Version | Text Only | Print | Product List | Glossary On
Versions: 1 2 3 4 5 6 7 8 9 10 11 12 13 14 15 16 17 18 19 20 21 22 23 24 25 26 27 28 29 30 31 32 33 34 35 36 37 38 39 40 41 42 43 44 45 46 47 48 49 50
000
ASUS43 KEAX 282311
RWREAX

WEATHER ROUNDUP FOR EASTERN KANSAS AND NORTHWEST MISSOURI
NATIONAL WEATHER SERVICE KANSAS CITY/PLEASANT HILL MO
600 PM CDT SAT MAR 28 2015

KSZ040-057-103>105-MOZ028-029-037-043-290000-
...KANSAS CITY METROPOLITAN AREA...

CITY           SKY/WX    TMP DP  RH WIND       PRES   REMARKS
K.C. INTL      SUNNY     52  31  44 SE10      30.11S
K.C. DOWNTOWN  SUNNY     53  29  39 SE13      30.12R
LEES SUMMIT    SUNNY     51  30  44 SE9       30.13S
OLATHE - IXD   SUNNY     51  32  48 E12       30.12S
OLATHE - OJC   SUNNY     51  31  46 SE13G20   30.11S
LAWRENCE       SUNNY     54  32  43 SE15      30.10F

$$

MOZ001>008-011>017-020>025-030>033-038>040-044>046-053-054-290000-
...NORTHERN AND CENTRAL MISSOURI...

CITY           SKY/WX    TMP DP  RH WIND       PRES   REMARKS
ST. JOSEPH     SUNNY     52  31  44 SE15G23   30.11F
MOSBY          CLEAR     52  32  46 E12       30.13S
WARRENSBURG    SUNNY     52  30  43 SE13      30.15S
WHITEMAN AFB   SUNNY     51  31  46 SE8       30.13F
CLINTON        SUNNY     52  32  46 SE10      30.16R
SEDALIA        MOSUNNY   51  31  46 SE12      30.17R
WARSAW         NOT AVBL
MARSHALL       SUNNY     52  34  50 E9        30.17F
CHILLICOTHE      N/A     49  31  49 SE10      30.17S
MOBERLY        SUNNY     48  25  40 SE10      30.20S
KIRKSVILLE     SUNNY     46  24  42 SE15      30.19F

$$

MOZ041-047>049-056>058-063>065-088>090-097-290000-
...EASTERN AND SOUTHERN MISSOURI...

CITY           SKY/WX    TMP DP  RH WIND       PRES   REMARKS
ST. LOUIS INTL SUNNY     46  17  31 E10G18    30.26S
SPIRIT OF STL  SUNNY     46  18  32 E9        30.24S
COLUMBIA       SUNNY     48  27  44 SE8       30.19S
JEFFERSON CITY MOSUNNY   48  27  44 E10       30.20S
MEXICO         SUNNY     50  30  46 E9        30.21S
HANNIBAL       SUNNY     46  12  25 E3        30.23S
ROLLA          MOSUNNY   46  27  47 S9        30.18S
LEBANON        PTSUNNY   45  32  61 SE12      30.20R
OSAGE BEACH    MOSUNNY   46  28  49 SE7       30.19R
SPRINGFIELD    MOSUNNY   46  32  58 SE16      30.14S
BRANSON        SUNNY     41  32  70 E9G20     30.17R
NEVADA         SUNNY     52  34  50 SE10      30.14R
JOPLIN         SUNNY     57  38  48 E12       30.08R
WEST PLAINS    CLOUDY    37  31  78 SE7       30.23S WCI  32

$$

IAZ060-094-KSZ022-034>040-054-083-096-NEZ052-066-093-290000-
...KANSAS...SOUTHEAST NEBRASKA AND IOWA...

CITY           SKY/WX    TMP DP  RH WIND       PRES   REMARKS
TOPEKA         SUNNY     55  33  43 E15       30.08F
MANHATTAN      SUNNY     62  35  36 S15       30.02S
EMPORIA        SUNNY     60  37  42 SE16G22   30.04S
CHANUTE        SUNNY     61  41  47 SE10      30.06S
WICHITA        SUNNY     72  38  29 E13       29.97S
OMAHA          SUNNY     54  30  40 S20       30.04F
LINCOLN        SUNNY     57  33  40 SE15      30.03F
FALLS CITY     SUNNY     53  32  44 SE17      30.07F
LAMONI         SUNNY     47  25  42 SE15G21   30.13S
DES MOINES     SUNNY     49  17  28 S15       30.13F

$$




USA.gov is the U.S. government's official web portal to all federal, state and local government web resources and services.